AAL2789 KMIA-MKJS

Flight info

Callsign AAL2789
Flight time 1h 10m
Altitude 39000
Route GWAVA2 URSUS UP406 BILSI/N0470F380 DCT NIBEO UL341 ENARI LENAR7
Aircraft B77W/H-SDE1E2E3FGHIJ2J3J4J5M1RWXY/LB1D1

Departure

Time 2026-05-04 17:47
Airport Miami International Airport (KMIA)

Arrival

Time 2026-05-04 18:57
Airport Sangster International Airport (MKJS)
Time Latitude Longitude Altitude Speed Heading
2026-05-04 17:22 25.79778 -80.27880 21 ft 0 kts 178°
2026-05-04 17:29 25.79779 -80.27880 21 ft 0 kts 178°
2026-05-04 17:35 25.79798 -80.27881 21 ft 4 kts 178°
2026-05-04 17:36 25.79825 -80.27882 23 ft 4 kts 178°
2026-05-04 17:36 25.79851 -80.27884 20 ft 2 kts 178°
2026-05-04 17:36 25.79872 -80.27882 19 ft 4 kts 215°
2026-05-04 17:36 25.79883 -80.27861 20 ft 4 kts 266°
2026-05-04 17:37 25.79884 -80.27832 20 ft 4 kts 267°
2026-05-04 17:37 25.79885 -80.27818 19 ft 2 kts 267°
2026-05-04 17:40 25.79884 -80.27831 19 ft 3 kts 267°
2026-05-04 17:40 25.79922 -80.27890 18 ft 15 kts 345°
2026-05-04 17:40 25.80039 -80.27919 17 ft 15 kts 315°
2026-05-04 17:40 25.80047 -80.28022 16 ft 14 kts 266°
2026-05-04 17:41 25.80040 -80.28191 19 ft 26 kts 268°
2026-05-04 17:41 25.80033 -80.28390 20 ft 26 kts 268°
2026-05-04 17:41 25.80026 -80.28588 23 ft 26 kts 268°
2026-05-04 17:41 25.80018 -80.28787 27 ft 26 kts 267°
2026-05-04 17:42 25.80008 -80.28985 30 ft 26 kts 267°
2026-05-04 17:42 25.80000 -80.29184 27 ft 26 kts 268°
2026-05-04 17:42 25.79992 -80.29378 24 ft 22 kts 268°
2026-05-04 17:42 25.79986 -80.29558 18 ft 24 kts 268°
2026-05-04 17:43 25.79977 -80.29757 19 ft 29 kts 267°
2026-05-04 17:43 25.79969 -80.29928 16 ft 10 kts 267°
2026-05-04 17:43 25.79969 -80.29932 16 ft 0 kts 267°
2026-05-04 17:45 25.79968 -80.29946 16 ft 5 kts 267°
2026-05-04 17:45 25.79965 -80.30016 17 ft 13 kts 267°
2026-05-04 17:46 25.80003 -80.30114 19 ft 9 kts 320°
2026-05-04 17:46 25.80053 -80.30126 20 ft 2 kts 19°
2026-05-04 17:46 25.80074 -80.30056 18 ft 20 kts 87°
2026-05-04 17:46 25.80086 -80.29779 18 ft 71 kts 87°
2026-05-04 17:47 25.80124 -80.28898 26 ft 153 kts 87°
2026-05-04 17:47 25.80150 -80.27521 307 ft 192 kts 88°
2026-05-04 17:47 25.80099 -80.26039 1097 ft 196 kts 100°
2026-05-04 17:47 25.79539 -80.24693 2087 ft 193 kts 127°
2026-05-04 17:48 25.78517 -80.23690 2847 ft 201 kts 140°
2026-05-04 17:48 25.77372 -80.22761 3573 ft 207 kts 142°
2026-05-04 17:48 25.76222 -80.21738 4219 ft 219 kts 138°
2026-05-04 17:48 25.75010 -80.20537 4525 ft 252 kts 137°
2026-05-04 17:49 25.73492 -80.19336 4695 ft 288 kts 155°
2026-05-04 17:49 25.71483 -80.18917 5374 ft 294 kts 185°
2026-05-04 17:49 25.69574 -80.19044 7141 ft 259 kts 183°
2026-05-04 17:49 25.67795 -80.19036 8352 ft 258 kts 181°
2026-05-04 17:50 25.65932 -80.19153 8767 ft 279 kts 189°
2026-05-04 17:50 25.63976 -80.19440 9503 ft 288 kts 190°
2026-05-04 17:50 25.61961 -80.19538 10242 ft 297 kts 173°
2026-05-04 17:50 25.59977 -80.18654 10646 ft 324 kts 153°
2026-05-04 17:51 25.57952 -80.17313 10889 ft 355 kts 152°
2026-05-04 17:51 25.55763 -80.15827 11185 ft 381 kts 152°
2026-05-04 17:51 25.53466 -80.14264 11980 ft 392 kts 152°
2026-05-04 17:51 25.51114 -80.12676 13010 ft 399 kts 153°
2026-05-04 17:52 25.48722 -80.11074 14046 ft 405 kts 153°
2026-05-04 17:52 25.46291 -80.09460 15012 ft 412 kts 154°
2026-05-04 17:52 25.43806 -80.07819 15920 ft 419 kts 154°
2026-05-04 17:52 25.41282 -80.06157 16834 ft 425 kts 154°
2026-05-04 17:53 25.38719 -80.04471 17727 ft 431 kts 154°
2026-05-04 17:53 25.36125 -80.02765 18550 ft 438 kts 154°
2026-05-04 17:53 25.33482 -80.01028 19315 ft 445 kts 154°
2026-05-04 17:53 25.30798 -79.99263 20052 ft 452 kts 154°
2026-05-04 17:54 25.28073 -79.97473 20781 ft 458 kts 154°
2026-05-04 17:54 25.25318 -79.95651 21488 ft 465 kts 153°
2026-05-04 17:54 25.22556 -79.93731 22174 ft 472 kts 152°
2026-05-04 17:54 25.19781 -79.91747 22827 ft 478 kts 151°
2026-05-04 17:55 25.16983 -79.89732 23428 ft 485 kts 151°
2026-05-04 17:55 25.14141 -79.87690 24032 ft 490 kts 151°
2026-05-04 17:55 25.11263 -79.85636 24602 ft 495 kts 151°
2026-05-04 17:55 25.08356 -79.83571 25188 ft 499 kts 152°
2026-05-04 17:56 25.05422 -79.81492 25788 ft 503 kts 152°
2026-05-04 17:56 25.02467 -79.79404 26368 ft 506 kts 152°
2026-05-04 17:56 24.99492 -79.77303 26910 ft 511 kts 152°
2026-05-04 17:56 24.96489 -79.75183 27450 ft 514 kts 152°
2026-05-04 17:57 24.93463 -79.73046 27992 ft 518 kts 152°
2026-05-04 17:57 24.90426 -79.70902 28506 ft 520 kts 152°
2026-05-04 17:57 24.87370 -79.68746 28990 ft 523 kts 152°
2026-05-04 17:57 24.84294 -79.66580 29433 ft 526 kts 152°
2026-05-04 17:58 24.81200 -79.64403 29825 ft 529 kts 152°
2026-05-04 17:58 24.78096 -79.62218 30312 ft 529 kts 152°
2026-05-04 17:58 24.75000 -79.60037 30980 ft 526 kts 153°
2026-05-04 17:58 24.71932 -79.57875 31635 ft 522 kts 153°
2026-05-04 17:59 24.68882 -79.55728 32240 ft 519 kts 153°
2026-05-04 17:59 24.65851 -79.53597 32847 ft 516 kts 153°
2026-05-04 17:59 24.60853 -79.50087 33839 ft 511 kts 154°
2026-05-04 18:00 24.57863 -79.47989 34351 ft 509 kts 154°
2026-05-04 18:00 24.53916 -79.45223 34917 ft 508 kts 154°
2026-05-04 18:00 24.51898 -79.43810 35174 ft 509 kts 155°
2026-05-04 18:00 24.47949 -79.41045 35731 ft 508 kts 155°
2026-05-04 18:01 24.44980 -79.38965 36184 ft 506 kts 155°
2026-05-04 18:01 24.42976 -79.37562 36434 ft 506 kts 155°
2026-05-04 18:01 24.39995 -79.35481 36702 ft 508 kts 156°
2026-05-04 18:02 24.34052 -79.31326 37558 ft 503 kts 156°
2026-05-04 18:02 24.31109 -79.29268 38039 ft 499 kts 157°
2026-05-04 18:02 24.28194 -79.27216 38446 ft 498 kts 156°
2026-05-04 18:02 24.25291 -79.25139 38723 ft 499 kts 156°
2026-05-04 18:03 24.22386 -79.23049 38939 ft 501 kts 156°
2026-05-04 18:03 24.19456 -79.20940 38982 ft 505 kts 156°
2026-05-04 18:03 24.13580 -79.16716 39033 ft 504 kts 156°
2026-05-04 18:04 24.07798 -79.12571 39038 ft 498 kts 157°
2026-05-04 18:05 23.99624 -79.06991 39015 ft 481 kts 168°
2026-05-04 18:05 23.96503 -79.06063 39047 ft 457 kts 181°
2026-05-04 18:05 23.93343 -79.05516 39050 ft 463 kts 181°
2026-05-04 18:06 23.83670 -79.03771 39051 ft 474 kts 180°
2026-05-04 18:06 23.77165 -79.02494 39047 ft 476 kts 179°
2026-05-04 18:07 23.70658 -79.01198 39043 ft 475 kts 179°
2026-05-04 18:07 23.64169 -78.99907 39044 ft 473 kts 179°
2026-05-04 18:08 23.57707 -78.98632 39044 ft 471 kts 179°
2026-05-04 18:08 23.51268 -78.97363 39043 ft 470 kts 179°
2026-05-04 18:09 23.38414 -78.94834 39043 ft 470 kts 180°
2026-05-04 18:10 23.31973 -78.93570 39038 ft 471 kts 180°
2026-05-04 18:10 23.25508 -78.92300 39039 ft 473 kts 180°
2026-05-04 18:11 23.19023 -78.91063 39034 ft 471 kts 182°
2026-05-04 18:11 23.12545 -78.90444 39041 ft 467 kts 185°
2026-05-04 18:12 23.06062 -78.89939 39036 ft 468 kts 185°
2026-05-04 18:12 22.99564 -78.89417 39036 ft 468 kts 185°
2026-05-04 18:13 22.93071 -78.88873 39037 ft 468 kts 185°
2026-05-04 18:14 22.83319 -78.88047 39035 ft 468 kts 185°
2026-05-04 18:14 22.76825 -78.87497 39037 ft 468 kts 185°
2026-05-04 18:15 22.63893 -78.86406 39037 ft 467 kts 185°
2026-05-04 18:16 22.57410 -78.85860 39036 ft 467 kts 185°
2026-05-04 18:16 22.50923 -78.85315 39037 ft 467 kts 185°
2026-05-04 18:17 22.41184 -78.84499 39033 ft 468 kts 185°
2026-05-04 18:18 22.31441 -78.83679 39034 ft 468 kts 185°
2026-05-04 18:18 22.24943 -78.83135 39037 ft 468 kts 184°
2026-05-04 18:19 22.15198 -78.82319 39036 ft 468 kts 184°
2026-05-04 18:19 22.08744 -78.81780 39040 ft 469 kts 184°
2026-05-04 18:20 22.02198 -78.81234 39035 ft 469 kts 184°
2026-05-04 18:20 21.95740 -78.80697 39036 ft 469 kts 184°
2026-05-04 18:21 21.89235 -78.80154 39036 ft 469 kts 184°
2026-05-04 18:21 21.82725 -78.79610 39036 ft 469 kts 184°
2026-05-04 18:22 21.76219 -78.79069 39037 ft 469 kts 184°
2026-05-04 18:22 21.69713 -78.78528 39038 ft 469 kts 184°
2026-05-04 18:23 21.63203 -78.77988 39033 ft 470 kts 184°
2026-05-04 18:23 21.56671 -78.77445 39029 ft 470 kts 183°
2026-05-04 18:24 21.50153 -78.76904 39028 ft 469 kts 184°
2026-05-04 18:24 21.43647 -78.76365 39029 ft 469 kts 183°
2026-05-04 18:25 21.37130 -78.75827 39028 ft 470 kts 183°
2026-05-04 18:25 21.30613 -78.75288 39028 ft 470 kts 183°
2026-05-04 18:26 21.24098 -78.74751 39027 ft 469 kts 183°
2026-05-04 18:26 21.17627 -78.74217 39030 ft 470 kts 183°
2026-05-04 18:27 21.11106 -78.73677 39028 ft 470 kts 183°
2026-05-04 18:27 21.04580 -78.73139 39027 ft 470 kts 183°
2026-05-04 18:28 20.98052 -78.72602 39028 ft 471 kts 183°
2026-05-04 18:28 20.91520 -78.72064 39028 ft 471 kts 182°
2026-05-04 18:29 20.84988 -78.71528 39027 ft 471 kts 182°
2026-05-04 18:29 20.78451 -78.70991 39028 ft 471 kts 182°
2026-05-04 18:30 20.68636 -78.70185 39029 ft 471 kts 182°
2026-05-04 18:31 20.62097 -78.69649 39028 ft 471 kts 182°
2026-05-04 18:31 20.55553 -78.69114 39039 ft 472 kts 182°
2026-05-04 18:32 20.49049 -78.68584 39038 ft 472 kts 182°
2026-05-04 18:32 20.42516 -78.68049 39028 ft 472 kts 182°
2026-05-04 18:33 20.35960 -78.67514 39029 ft 472 kts 182°
2026-05-04 18:33 20.29402 -78.66977 39028 ft 473 kts 182°
2026-05-04 18:34 20.22847 -78.66444 39028 ft 473 kts 182°
2026-05-04 18:34 20.16293 -78.65912 39035 ft 472 kts 182°
2026-05-04 18:35 20.09735 -78.65375 39038 ft 472 kts 182°
2026-05-04 18:35 20.06448 -78.65108 38573 ft 479 kts 182°
2026-05-04 18:35 20.03077 -78.64694 37502 ft 493 kts 176°
2026-05-04 18:35 19.99702 -78.63891 36546 ft 500 kts 170°
2026-05-04 18:36 19.96392 -78.62777 35890 ft 499 kts 165°
2026-05-04 18:36 19.93188 -78.61339 35069 ft 500 kts 160°
2026-05-04 18:36 19.90015 -78.59788 34074 ft 504 kts 160°
2026-05-04 18:36 19.86834 -78.58204 33057 ft 507 kts 159°
2026-05-04 18:37 19.83633 -78.56609 31980 ft 509 kts 159°
2026-05-04 18:37 19.80410 -78.55017 30869 ft 511 kts 159°
2026-05-04 18:37 19.77182 -78.53434 30058 ft 507 kts 159°
2026-05-04 18:37 19.74002 -78.51885 29306 ft 501 kts 159°
2026-05-04 18:38 19.70846 -78.50353 28561 ft 496 kts 159°
2026-05-04 18:38 19.67721 -78.48840 27840 ft 491 kts 158°
2026-05-04 18:38 19.64632 -78.47346 27128 ft 487 kts 158°
2026-05-04 18:38 19.61557 -78.45861 26402 ft 483 kts 158°
2026-05-04 18:39 19.58510 -78.44391 25719 ft 479 kts 158°
2026-05-04 18:39 19.55490 -78.42934 25024 ft 476 kts 157°
2026-05-04 18:39 19.52490 -78.41485 24311 ft 472 kts 157°
2026-05-04 18:39 19.49514 -78.40049 23645 ft 469 kts 156°
2026-05-04 18:40 19.46556 -78.38621 22968 ft 465 kts 156°
2026-05-04 18:40 19.43618 -78.37202 22293 ft 462 kts 156°
2026-05-04 18:40 19.40708 -78.35798 21631 ft 459 kts 156°
2026-05-04 18:40 19.37812 -78.34403 20956 ft 455 kts 156°
2026-05-04 18:41 19.34977 -78.33037 20302 ft 451 kts 156°
2026-05-04 18:41 19.32095 -78.31649 19634 ft 447 kts 157°
2026-05-04 18:41 19.29278 -78.30293 18988 ft 443 kts 157°
2026-05-04 18:41 19.26488 -78.28949 18324 ft 432 kts 157°
2026-05-04 18:42 19.23800 -78.27654 17712 ft 422 kts 157°
2026-05-04 18:42 19.21170 -78.26388 17104 ft 420 kts 157°
2026-05-04 18:42 19.18523 -78.25116 16485 ft 417 kts 157°
2026-05-04 18:42 19.15889 -78.23850 15861 ft 414 kts 156°
2026-05-04 18:43 19.13276 -78.22594 15245 ft 412 kts 156°
2026-05-04 18:43 19.10701 -78.21357 14608 ft 394 kts 156°
2026-05-04 18:43 19.08292 -78.20201 14039 ft 373 kts 156°
2026-05-04 18:43 19.05933 -78.19074 13506 ft 372 kts 156°
2026-05-04 18:44 19.03554 -78.17933 12945 ft 377 kts 156°
2026-05-04 18:44 19.02749 -78.17547 12748 ft 379 kts 156°
2026-05-04 18:44 18.98726 -78.15622 11778 ft 383 kts 156°
2026-05-04 18:44 18.96313 -78.14470 11181 ft 379 kts 156°
2026-05-04 18:45 18.93937 -78.13330 10902 ft 368 kts 155°
2026-05-04 18:45 18.91666 -78.12245 10708 ft 343 kts 155°
2026-05-04 18:45 18.89605 -78.11258 10540 ft 309 kts 155°
2026-05-04 18:45 18.87739 -78.10366 10406 ft 280 kts 155°
2026-05-04 18:46 18.86035 -78.09554 10320 ft 262 kts 155°
2026-05-04 18:46 18.84364 -78.08754 10240 ft 271 kts 155°
2026-05-04 18:46 18.82594 -78.07908 10142 ft 286 kts 155°
2026-05-04 18:46 18.81388 -78.07332 10069 ft 287 kts 155°
2026-05-04 18:47 18.79619 -78.06487 9754 ft 271 kts 155°
2026-05-04 18:47 18.77947 -78.05689 9470 ft 261 kts 154°
2026-05-04 18:47 18.76258 -78.04881 9207 ft 276 kts 154°
2026-05-04 18:47 18.74472 -78.04029 8879 ft 286 kts 154°
2026-05-04 18:48 18.72654 -78.03161 8541 ft 287 kts 154°
2026-05-04 18:48 18.70830 -78.02292 8222 ft 289 kts 155°
2026-05-04 18:48 18.68972 -78.01492 7850 ft 288 kts 166°
2026-05-04 18:48 18.66990 -78.01595 7488 ft 289 kts 200°
2026-05-04 18:49 18.65449 -78.02809 7137 ft 273 kts 236°
2026-05-04 18:49 18.64514 -78.04511 6888 ft 266 kts 237°
2026-05-04 18:49 18.63358 -78.06028 6565 ft 263 kts 224°
2026-05-04 18:49 18.61962 -78.07292 6294 ft 270 kts 216°
2026-05-04 18:50 18.60399 -78.08416 5984 ft 273 kts 211°
2026-05-04 18:50 18.58804 -78.09407 5642 ft 259 kts 207°
2026-05-04 18:50 18.57160 -78.10240 5374 ft 267 kts 202°
2026-05-04 18:50 18.55399 -78.10926 5051 ft 272 kts 196°
2026-05-04 18:51 18.53569 -78.11421 4745 ft 271 kts 190°
2026-05-04 18:51 18.51708 -78.11702 4429 ft 269 kts 184°
2026-05-04 18:51 18.49845 -78.11772 4113 ft 267 kts 177°
2026-05-04 18:51 18.48009 -78.11638 3796 ft 260 kts 171°
2026-05-04 18:52 18.46298 -78.11326 3542 ft 239 kts 165°
2026-05-04 18:52 18.44736 -78.10872 3451 ft 228 kts 160°
2026-05-04 18:52 18.43433 -78.10116 3318 ft 212 kts 131°
2026-05-04 18:52 18.42813 -78.08731 3252 ft 211 kts 95°
2026-05-04 18:53 18.43093 -78.07246 3114 ft 210 kts 65°
2026-05-04 18:53 18.43842 -78.05918 2789 ft 211 kts 61°
2026-05-04 18:53 18.44557 -78.04625 2511 ft 201 kts 64°
2026-05-04 18:53 18.45141 -78.03378 2278 ft 180 kts 66°
2026-05-04 18:54 18.45666 -78.02230 2001 ft 168 kts 65°
2026-05-04 18:54 18.46104 -78.01190 1821 ft 149 kts 67°
2026-05-04 18:54 18.46515 -78.00215 1627 ft 142 kts 66°
2026-05-04 18:54 18.46916 -77.99284 1441 ft 138 kts 65°
2026-05-04 18:55 18.47311 -77.98372 1262 ft 137 kts 64°
2026-05-04 18:55 18.48109 -77.96534 905 ft 138 kts 64°
2026-05-04 18:55 18.48510 -77.95611 721 ft 138 kts 64°
2026-05-04 18:56 18.48909 -77.94691 533 ft 138 kts 64°
2026-05-04 18:56 18.49310 -77.93769 353 ft 138 kts 65°
2026-05-04 18:56 18.49705 -77.92849 189 ft 139 kts 64°
2026-05-04 18:56 18.50112 -77.91923 31 ft 137 kts 64°
2026-05-04 18:57 18.50471 -77.91093 17 ft 106 kts 65°
2026-05-04 18:57 18.50721 -77.90518 16 ft 78 kts 65°
2026-05-04 18:57 18.50836 -77.90246 15 ft 15 kts 73°
2026-05-04 18:57 18.50814 -77.90181 15 ft 7 kts 141°
2026-05-04 18:58 18.50765 -77.90181 15 ft 7 kts 198°
2026-05-04 18:58 18.50713 -77.90202 15 ft 9 kts 201°
2026-05-04 18:58 18.50671 -77.90224 15 ft 6 kts 220°
2026-05-04 18:58 18.50645 -77.90265 15 ft 8 kts 243°
2026-05-04 18:59 18.50616 -77.90326 15 ft 11 kts 245°
2026-05-04 18:59 18.50581 -77.90406 15 ft 13 kts 245°
2026-05-04 18:59 18.50539 -77.90504 16 ft 16 kts 245°
2026-05-04 18:59 18.50489 -77.90617 15 ft 18 kts 245°
2026-05-04 19:00 18.50439 -77.90738 15 ft 18 kts 246°
2026-05-04 19:00 18.50388 -77.90858 15 ft 18 kts 245°
2026-05-04 19:00 18.50337 -77.90977 15 ft 18 kts 245°
2026-05-04 19:00 18.50285 -77.91097 15 ft 18 kts 245°
2026-05-04 19:01 18.50233 -77.91216 15 ft 18 kts 245°
2026-05-04 19:01 18.50194 -77.91304 15 ft 6 kts 243°
2026-05-04 19:01 18.50155 -77.91316 15 ft 7 kts 172°
2026-05-04 19:01 18.50111 -77.91329 15 ft 7 kts 227°
2026-05-04 19:02 18.50089 -77.91354 15 ft 4 kts 213°
2026-05-04 19:02 18.50061 -77.91361 15 ft 5 kts 188°
2026-05-04 19:02 18.50032 -77.91365 15 ft 3 kts 188°
2026-05-04 19:02 18.50013 -77.91367 15 ft 2 kts 186°
2026-05-04 19:03 18.50000 -77.91369 15 ft 0 kts 186°
2026-05-04 19:03 18.49997 -77.91369 15 ft 1 kts 185°
2026-05-04 19:03 18.49995 -77.91370 15 ft 0 kts 185°